PWSweather.com
Personal Weather Stations
Station Observations
UPSTATEWEATHER
Silver Leaf, Greer, SC 29650

Silver LeafGreer, SC 29650

Lat: 34.8955792, Lon: -82.2868211

Elevation: 875

Station Type: Davis Vantage Vue

https://www.upstateweather.com

High Low Average
Temperature 76.8°F24.9°C 64.0°F17.8°C 70.9°F21.6°C
Dew Point 68.5°F20.3°C 62.4°F16.9°C 65.6°F18.7°C
Winds 1.2 mph 1.9 kmh Calm Calm Calm NCalm N
Wind Gusts 2.3 mph3.7 kmh -- --
Humidity 95% 71% 84%
Pressure 30.12 in1020.0 mb 30.01 in1016.3 mb -
Precipitation 0.00 in0.0 mm - -
Hour Temp Dew Point Humidity Winds Wind Gusts Pressure Precip Precip Rate Daily Precip Total
12:00 AM 68.9°F20.5°C 65.5°F18.6°C 89% Calm Calm -- 30.11 in1019.6 mb - 0.00 in0.0 mm 0.00 in0.0 mm
12:15 AM 68.9°F20.5°C 65.5°F18.6°C 89% Calm Calm -- 30.11 in1019.6 mb - 0.00 in0.0 mm 0.00 in0.0 mm
12:30 AM 68.8°F20.4°C 65.4°F18.6°C 89% Calm Calm -- 30.11 in1019.6 mb - 0.00 in0.0 mm 0.00 in0.0 mm
12:45 AM 68.7°F20.4°C 65.3°F18.5°C 89% Calm Calm -- 30.11 in1019.6 mb - 0.00 in0.0 mm 0.00 in0.0 mm
01:00 AM 68.5°F20.3°C 65.5°F18.6°C 90% Calm Calm -- 30.10 in1019.3 mb - 0.00 in0.0 mm 0.00 in0.0 mm
01:15 AM 68.1°F20.1°C 64.7°F18.2°C 89% Calm Calm -- 30.10 in1019.3 mb - 0.00 in0.0 mm 0.00 in0.0 mm
01:30 AM 67.5°F19.7°C 64.5°F18.1°C 90% Calm Calm -- 30.09 in1019.0 mb - 0.00 in0.0 mm 0.00 in0.0 mm
01:45 AM 67.0°F19.4°C 64.3°F17.9°C 91% Calm Calm -- 30.09 in1019.0 mb - 0.00 in0.0 mm 0.00 in0.0 mm
02:00 AM 66.6°F19.2°C 64.2°F17.9°C 92% Calm Calm -- 30.09 in1019.0 mb - 0.00 in0.0 mm 0.00 in0.0 mm
02:15 AM 66.2°F19.0°C 63.8°F17.7°C 92% Calm Calm -- 30.08 in1018.6 mb - 0.00 in0.0 mm 0.00 in0.0 mm
02:30 AM 65.8°F18.8°C 63.7°F17.6°C 93% Calm Calm -- 30.08 in1018.6 mb - 0.00 in0.0 mm 0.00 in0.0 mm
02:45 AM 65.5°F18.6°C 63.4°F17.4°C 93% Calm Calm -- 30.08 in1018.6 mb - 0.00 in0.0 mm 0.00 in0.0 mm
03:00 AM 65.2°F18.4°C 63.4°F17.4°C 94% Calm Calm -- 30.08 in1018.6 mb - 0.00 in0.0 mm 0.00 in0.0 mm
03:15 AM 65.0°F18.3°C 63.2°F17.3°C 94% Calm Calm -- 30.07 in1018.3 mb - 0.00 in0.0 mm 0.00 in0.0 mm
03:30 AM 65.0°F18.3°C 63.2°F17.3°C 94% Calm Calm -- 30.07 in1018.3 mb - 0.00 in0.0 mm 0.00 in0.0 mm
03:45 AM 65.0°F18.3°C 63.2°F17.3°C 94% Calm Calm -- 30.08 in1018.6 mb - 0.00 in0.0 mm 0.00 in0.0 mm
04:00 AM 65.1°F18.4°C 63.3°F17.4°C 94% Calm Calm -- 30.08 in1018.6 mb - 0.00 in0.0 mm 0.00 in0.0 mm
04:15 AM 65.0°F18.3°C 63.2°F17.3°C 94% Calm Calm -- 30.08 in1018.6 mb - 0.00 in0.0 mm 0.00 in0.0 mm
04:30 AM 64.7°F18.2°C 62.9°F17.2°C 94% Calm Calm -- 30.08 in1018.6 mb - 0.00 in0.0 mm 0.00 in0.0 mm
04:45 AM 64.6°F18.1°C 62.8°F17.1°C 94% Calm Calm -- 30.08 in1018.6 mb - 0.00 in0.0 mm 0.00 in0.0 mm
05:00 AM 64.5°F18.1°C 62.7°F17.1°C 94% Calm Calm -- 30.09 in1019.0 mb - 0.00 in0.0 mm 0.00 in0.0 mm
05:15 AM 64.4°F18.0°C 62.9°F17.2°C 95% Calm Calm -- 30.09 in1019.0 mb - 0.00 in0.0 mm 0.00 in0.0 mm
05:30 AM 64.2°F17.9°C 62.4°F16.9°C 94% Calm Calm -- 30.09 in1019.0 mb - 0.00 in0.0 mm 0.00 in0.0 mm
05:45 AM 64.0°F17.8°C 62.5°F16.9°C 95% Calm Calm -- 30.09 in1019.0 mb - 0.00 in0.0 mm 0.00 in0.0 mm
06:00 AM 64.0°F17.8°C 62.5°F16.9°C 95% Calm Calm -- 30.10 in1019.3 mb - 0.00 in0.0 mm 0.00 in0.0 mm
06:15 AM 64.0°F17.8°C 62.5°F16.9°C 95% Calm Calm -- 30.10 in1019.3 mb - 0.00 in0.0 mm 0.00 in0.0 mm
06:30 AM 64.2°F17.9°C 62.7°F17.1°C 95% Calm Calm -- 30.11 in1019.6 mb - 0.00 in0.0 mm 0.00 in0.0 mm
06:45 AM 64.7°F18.2°C 62.6°F17.0°C 93% Calm Calm -- 30.11 in1019.6 mb - 0.00 in0.0 mm 0.00 in0.0 mm
07:00 AM 65.2°F18.4°C 63.1°F17.3°C 93% Calm Calm 1.2 mph1.9 kmh 30.11 in1019.6 mb - 0.00 in0.0 mm 0.00 in0.0 mm
07:15 AM 65.6°F18.7°C 62.9°F17.2°C 91% Calm Calm -- 30.11 in1019.6 mb - 0.00 in0.0 mm 0.00 in0.0 mm
07:30 AM 66.2°F19.0°C 63.2°F17.3°C 90% Calm Calm -- 30.11 in1019.6 mb - 0.00 in0.0 mm 0.00 in0.0 mm
07:45 AM 66.6°F19.2°C 62.6°F17.0°C 87% Calm Calm 2.3 mph3.7 kmh 30.11 in1019.6 mb - 0.00 in0.0 mm 0.00 in0.0 mm
08:00 AM 66.9°F19.4°C 62.9°F17.2°C 87% Calm Calm -- 30.12 in1020.0 mb - 0.00 in0.0 mm 0.00 in0.0 mm
08:15 AM 67.6°F19.8°C 63.3°F17.4°C 86% Calm Calm 1.2 mph1.9 kmh 30.11 in1019.6 mb - 0.00 in0.0 mm 0.00 in0.0 mm
08:30 AM 68.3°F20.2°C 63.6°F17.6°C 85% Calm Calm 1.2 mph1.9 kmh 30.11 in1019.6 mb - 0.00 in0.0 mm 0.00 in0.0 mm
08:45 AM 68.1°F20.1°C 63.4°F17.4°C 85% Calm Calm 1.2 mph1.9 kmh 30.12 in1020.0 mb - 0.00 in0.0 mm 0.00 in0.0 mm
09:00 AM 68.3°F20.2°C 63.3°F17.4°C 84% Calm Calm -- 30.11 in1019.6 mb - 0.00 in0.0 mm 0.00 in0.0 mm
09:15 AM 68.8°F20.4°C 63.4°F17.4°C 83% Calm Calm 1.2 mph1.9 kmh 30.11 in1019.6 mb - 0.00 in0.0 mm 0.00 in0.0 mm
09:30 AM 70.2°F21.2°C 64.4°F18.0°C 82% 1.2 mph N1.9 kmh N 1.2 mph1.9 kmh 30.11 in1019.6 mb - 0.00 in0.0 mm 0.00 in0.0 mm
09:45 AM 71.8°F22.1°C 64.9°F18.3°C 79% Calm Calm -- 30.11 in1019.6 mb - 0.00 in0.0 mm 0.00 in0.0 mm
10:00 AM 72.5°F22.5°C 63.8°F17.7°C 74% 1.2 mph N1.9 kmh N 1.2 mph1.9 kmh 30.11 in1019.6 mb - 0.00 in0.0 mm 0.00 in0.0 mm
10:15 AM 73.8°F23.2°C 64.9°F18.3°C 74% Calm Calm 1.2 mph1.9 kmh 30.11 in1019.6 mb - 0.00 in0.0 mm 0.00 in0.0 mm
10:30 AM 74.3°F23.5°C 65.1°F18.4°C 73% 1.2 mph N1.9 kmh N 2.3 mph3.7 kmh 30.11 in1019.6 mb - 0.00 in0.0 mm 0.00 in0.0 mm
10:45 AM 74.5°F23.6°C 65.3°F18.5°C 73% Calm Calm 2.3 mph3.7 kmh 30.11 in1019.6 mb - 0.00 in0.0 mm 0.00 in0.0 mm
11:00 AM 73.7°F23.2°C 65.3°F18.5°C 75% Calm Calm -- 30.10 in1019.3 mb - 0.00 in0.0 mm 0.00 in0.0 mm
11:15 AM 73.9°F23.3°C 65.5°F18.6°C 75% 1.2 mph N1.9 kmh N 1.2 mph1.9 kmh 30.10 in1019.3 mb - 0.00 in0.0 mm 0.00 in0.0 mm
11:30 AM 74.4°F23.6°C 65.6°F18.7°C 74% 1.2 mph N1.9 kmh N 1.2 mph1.9 kmh 30.09 in1019.0 mb - 0.00 in0.0 mm 0.00 in0.0 mm
11:45 AM 74.0°F23.3°C 65.6°F18.7°C 75% Calm Calm -- 30.09 in1019.0 mb - 0.00 in0.0 mm 0.00 in0.0 mm
12:00 PM 74.6°F23.7°C 65.4°F18.6°C 73% 1.2 mph N1.9 kmh N 1.2 mph1.9 kmh 30.09 in1019.0 mb - 0.00 in0.0 mm 0.00 in0.0 mm
12:15 PM 74.7°F23.7°C 66.2°F19.0°C 75% Calm Calm -- 30.08 in1018.6 mb - 0.00 in0.0 mm 0.00 in0.0 mm
12:30 PM 74.3°F23.5°C 66.2°F19.0°C 76% Calm Calm -- 30.08 in1018.6 mb - 0.00 in0.0 mm 0.00 in0.0 mm
12:45 PM 74.5°F23.6°C 65.3°F18.5°C 73% Calm Calm -- 30.08 in1018.6 mb - 0.00 in0.0 mm 0.00 in0.0 mm
01:00 PM 74.1°F23.4°C 66.0°F18.9°C 76% Calm Calm -- 30.07 in1018.3 mb - 0.00 in0.0 mm 0.00 in0.0 mm
01:15 PM 74.4°F23.6°C 66.4°F19.1°C 76% Calm Calm 1.2 mph1.9 kmh 30.07 in1018.3 mb - 0.00 in0.0 mm 0.00 in0.0 mm
01:30 PM 75.2°F24.0°C 65.9°F18.8°C 73% Calm Calm -- 30.06 in1017.9 mb - 0.00 in0.0 mm 0.00 in0.0 mm
01:45 PM 75.5°F24.2°C 67.0°F19.4°C 75% Calm Calm 1.2 mph1.9 kmh 30.06 in1017.9 mb - 0.00 in0.0 mm 0.00 in0.0 mm
02:00 PM 75.3°F24.1°C 67.2°F19.6°C 76% Calm Calm 1.2 mph1.9 kmh 30.05 in1017.6 mb - 0.00 in0.0 mm 0.00 in0.0 mm
02:15 PM 75.9°F24.4°C 67.4°F19.7°C 75% 1.2 mph N1.9 kmh N 1.2 mph1.9 kmh 30.05 in1017.6 mb - 0.00 in0.0 mm 0.00 in0.0 mm
02:30 PM 75.5°F24.2°C 67.4°F19.7°C 76% Calm Calm -- 30.04 in1017.3 mb - 0.00 in0.0 mm 0.00 in0.0 mm
02:45 PM 75.8°F24.3°C 67.3°F19.6°C 75% Calm Calm -- 30.03 in1016.9 mb - 0.00 in0.0 mm 0.00 in0.0 mm
03:00 PM 76.2°F24.6°C 68.1°F20.1°C 76% Calm Calm -- 30.02 in1016.6 mb - 0.00 in0.0 mm 0.00 in0.0 mm
03:15 PM 76.6°F24.8°C 67.3°F19.6°C 73% Calm Calm 2.3 mph3.7 kmh 30.02 in1016.6 mb - 0.00 in0.0 mm 0.00 in0.0 mm
03:30 PM 76.8°F24.9°C 68.3°F20.2°C 75% Calm Calm -- 30.02 in1016.6 mb - 0.00 in0.0 mm 0.00 in0.0 mm
03:45 PM 76.7°F24.8°C 68.2°F20.1°C 75% Calm Calm -- 30.02 in1016.6 mb - 0.00 in0.0 mm 0.00 in0.0 mm
04:00 PM 76.7°F24.8°C 66.6°F19.2°C 71% Calm Calm 1.2 mph1.9 kmh 30.02 in1016.6 mb - 0.00 in0.0 mm 0.00 in0.0 mm
04:15 PM 76.6°F24.8°C 68.5°F20.3°C 76% Calm Calm -- 30.01 in1016.3 mb - 0.00 in0.0 mm 0.00 in0.0 mm
04:30 PM 76.2°F24.6°C 68.5°F20.3°C 77% Calm Calm -- 30.01 in1016.3 mb - 0.00 in0.0 mm 0.00 in0.0 mm
04:45 PM 75.9°F24.4°C 68.2°F20.1°C 77% Calm Calm -- 30.01 in1016.3 mb - 0.00 in0.0 mm 0.00 in0.0 mm
05:00 PM 75.4°F24.1°C 67.7°F19.8°C 77% Calm Calm -- 30.02 in1016.6 mb - 0.00 in0.0 mm 0.00 in0.0 mm
05:15 PM 75.3°F24.1°C 67.6°F19.8°C 77% Calm Calm -- 30.01 in1016.3 mb - 0.00 in0.0 mm 0.00 in0.0 mm
05:30 PM 75.1°F23.9°C 67.4°F19.7°C 77% Calm Calm -- 30.01 in1016.3 mb - 0.00 in0.0 mm 0.00 in0.0 mm
05:45 PM 75.0°F23.9°C 67.7°F19.8°C 78% Calm Calm -- 30.01 in1016.3 mb - 0.00 in0.0 mm 0.00 in0.0 mm
06:00 PM 74.7°F23.7°C 67.8°F19.9°C 79% Calm Calm -- 30.01 in1016.3 mb - 0.00 in0.0 mm 0.00 in0.0 mm
06:15 PM 74.5°F23.6°C 67.9°F19.9°C 80% Calm Calm -- 30.02 in1016.6 mb - 0.00 in0.0 mm 0.00 in0.0 mm
06:30 PM 74.3°F23.5°C 67.4°F19.7°C 79% Calm Calm -- 30.01 in1016.3 mb - 0.00 in0.0 mm 0.00 in0.0 mm
06:45 PM 74.2°F23.4°C 67.6°F19.8°C 80% Calm Calm -- 30.01 in1016.3 mb - 0.00 in0.0 mm 0.00 in0.0 mm
07:00 PM 73.9°F23.3°C 67.7°F19.8°C 81% Calm Calm -- 30.01 in1016.3 mb - 0.00 in0.0 mm 0.00 in0.0 mm
07:15 PM 73.7°F23.2°C 67.9°F19.9°C 82% Calm Calm -- 30.02 in1016.6 mb - 0.00 in0.0 mm 0.00 in0.0 mm
07:30 PM 73.5°F23.1°C 67.7°F19.8°C 82% Calm Calm -- 30.02 in1016.6 mb - 0.00 in0.0 mm 0.00 in0.0 mm
07:45 PM 73.4°F23.0°C 67.6°F19.8°C 82% Calm Calm -- 30.02 in1016.6 mb - 0.00 in0.0 mm 0.00 in0.0 mm
08:00 PM 73.2°F22.9°C 67.7°F19.8°C 83% Calm Calm -- 30.02 in1016.6 mb - 0.00 in0.0 mm 0.00 in0.0 mm
08:15 PM 73.0°F22.8°C 67.5°F19.7°C 83% Calm Calm -- 30.03 in1016.9 mb - 0.00 in0.0 mm 0.00 in0.0 mm
08:30 PM 72.8°F22.7°C 67.3°F19.6°C 83% Calm Calm -- 30.04 in1017.3 mb - 0.00 in0.0 mm 0.00 in0.0 mm
08:45 PM 72.8°F22.7°C 67.7°F19.8°C 84% Calm Calm -- 30.04 in1017.3 mb - 0.00 in0.0 mm 0.00 in0.0 mm
09:00 PM 72.6°F22.6°C 67.5°F19.7°C 84% Calm Calm -- 30.04 in1017.3 mb - 0.00 in0.0 mm 0.00 in0.0 mm
09:15 PM 72.5°F22.5°C 67.7°F19.8°C 85% Calm Calm -- 30.04 in1017.3 mb - 0.00 in0.0 mm 0.00 in0.0 mm
09:30 PM 72.4°F22.4°C 67.7°F19.8°C 85% Calm Calm -- 30.05 in1017.6 mb - 0.00 in0.0 mm 0.00 in0.0 mm
09:45 PM 72.4°F22.4°C 67.3°F19.6°C 84% Calm Calm -- 30.05 in1017.6 mb - 0.00 in0.0 mm 0.00 in0.0 mm
10:00 PM 72.2°F22.3°C 67.4°F19.7°C 85% Calm Calm -- 30.05 in1017.6 mb - 0.00 in0.0 mm 0.00 in0.0 mm
10:15 PM 72.2°F22.3°C 67.8°F19.9°C 86% Calm Calm -- 30.06 in1017.9 mb - 0.00 in0.0 mm 0.00 in0.0 mm
10:30 PM 72.0°F22.2°C 67.6°F19.8°C 86% Calm Calm -- 30.06 in1017.9 mb - 0.00 in0.0 mm 0.00 in0.0 mm
10:45 PM 71.9°F22.2°C 67.2°F19.6°C 85% Calm Calm -- 30.05 in1017.6 mb - 0.00 in0.0 mm 0.00 in0.0 mm
11:00 PM 71.8°F22.1°C 67.4°F19.7°C 86% Calm Calm -- 30.05 in1017.6 mb - 0.00 in0.0 mm 0.00 in0.0 mm
11:15 PM 71.6°F22.0°C 67.5°F19.7°C 87% Calm Calm -- 30.05 in1017.6 mb - 0.00 in0.0 mm 0.00 in0.0 mm
11:30 PM 71.5°F21.9°C 67.4°F19.7°C 87% Calm Calm -- 30.05 in1017.6 mb - 0.00 in0.0 mm 0.00 in0.0 mm
11:45 PM 71.4°F21.9°C 67.7°F19.8°C 88% Calm Calm -- 30.05 in1017.6 mb - 0.00 in0.0 mm 0.00 in0.0 mm